Location: Heilwood
(40.6210°N, 78.9150°W)
Time: 14:36:22
(UTC-04:00)

Daily predictions for brighter satellites

Satellite Brightness Start Highest point End
(mag) Time Altitude Azimuth Time Altitude Azimuth Time Altitude Azimuth
Cosmos 1125 Rocket 4.2 20:58:13 10° SSE 21:02:53 34° E 21:07:33 10° NE
Meteor 2-3 Rocket 3.8 20:57:16 10° S 21:02:57 71° E 21:08:35 10° NNE
Cosmos 1634 Rocket 4.3 20:58:54 10° N 21:05:05 54° E 21:11:14 10° SSE
Cosmos 1933 Rocket 4.5 21:03:19 10° SSW 21:07:33 54° W 21:11:51 10° N
Meteor 1-26 Rocket 4.4 21:02:02 10° N 21:07:43 88° W 21:13:30 10° S
Cosmos 2344 4.2 21:03:51 10° S 21:10:31 33° ESE 21:17:30 10° NE
USA 186 2.3 21:09:35 10° S 21:12:14 51° W 21:15:07 10° NNW
Cosmos 1943 Rocket 2.6 21:09:10 10° S 21:14:22 41° ESE 21:19:33 10° NE
Cosmos 1782 3.7 21:11:49 10° NNE 21:15:26 31° ENE 21:18:59 10° SE
Cosmos 1892 3.3 21:15:58 10° SSW 21:19:46 61° W 21:23:34 10° N
Cosmos 158 Rocket 4.4 21:18:47 10° N 21:23:26 42° ENE 21:27:45 11° SE
Resurs 01 Rocket 3.2 21:23:29 10° SSW 21:27:30 35° W 21:31:36 10° NNW
Okean 1-7 3.2 21:23:59 10° N 21:28:20 57° E 21:32:39 10° SSE
DELTA 2 R/B(2) 2.9 21:27:27 10° WSW 21:29:23 59° S 21:30:22 18° E
SAR-Lupe-4 4.1 21:27:23 12° SE 21:30:30 42° ENE 21:33:55 10° N
Cosmos 1340 3.7 21:28:27 10° NNE 21:31:50 30° ENE 21:34:24 15° SE
Spot 1 4.4 21:29:21 10° SSE 21:34:08 73° ENE 21:39:11 10° N
Cosmos 2263 4.2 21:30:21 10° SSW 21:36:06 81° ESE 21:41:51 10° NNE
Cosmos 2279 Rocket 4.2 21:30:21 10° N 21:36:30 55° E 21:42:29 10° SSE
Cosmos 1862 4.3 21:33:56 13° SE 21:36:42 27° E 21:40:06 10° NNE
Meteor 1-29 2.9 21:37:37 10° NNE 21:41:06 67° ESE 21:44:33 10° S
YAOGAN 6 2.7 21:37:41 10° S 21:41:23 83° W 21:45:05 10° NNW
H-2A R/B 3.4 21:40:00 14° ESE 21:43:28 26° ENE 21:47:48 10° NNE
Cosmos 2369 Rocket 2.7 21:37:58 10° SW 21:43:34 64° WNW 21:49:15 10° NNE
CZ-4B DEB 2.4 21:41:28 14° SSE 21:43:50 82° E 21:46:47 10° N
ISS -1.6 21:41:07 10° W 21:43:58 27° NNW 21:46:49 10° NE
Terra 4.0 21:42:55 10° ENE 21:44:21 11° ENE 21:45:48 10° NE
Tiangong 2 3.3 21:43:10 10° WSW 21:45:20 17° SW 21:47:06 12° S
ERS-1 Rocket 3.1 21:43:42 14° SSE 21:48:02 61° ENE 21:53:00 10° N
Helios 1B rocket 2.6 21:44:17 10° N 21:48:24 78° WNW 21:52:29 10° SSW
Cosmos 1703 Rocket 4.3 21:45:21 10° NNW 21:49:39 53° W 21:53:53 10° S
SAR-Lupe-1 4.0 21:49:32 18° SSE 21:52:03 68° ENE 21:55:37 10° N
Cosmos 1606 2.6 21:49:55 10° N 21:53:42 85° ENE 21:56:41 16° S
GPS 2-04 Rocket1 3.6 21:50:47 10° WSW 21:54:03 28° SSW 21:55:27 22° SSE
DNEPR-1 R/B 4.0 21:49:06 10° SW 21:54:21 74° WNW 21:58:53 10° NNE
Cosmos 1833 4.4 21:49:49 10° NNW 21:55:33 60° ENE 21:59:28 20° SE
Lacrosse 4 Rocket 1.6 21:52:33 10° NNW 21:57:03 67° ENE 21:59:44 23° SE
H-2A ROCKET BODY 3.6 21:55:15 10° SSW 21:57:48 17° SSE 21:58:45 16° SSE
MetOp-B 4.2 21:53:50 17° SSE 21:57:56 62° ENE 22:03:13 10° N
Cosmos 1733 Rocket 3.5 21:56:23 20° SSE 21:58:50 39° E 22:02:53 10° NNE
USA 215 3.7 21:53:28 14° ESE 21:58:55 55° NE 22:05:18 10° NW
Aureole 3 3.6 21:56:15 10° SSW 21:59:10 48° W 22:02:06 10° N
ATLAS 5 CENTAUR R/B 2.4 21:53:55 10° NNW 21:59:58 84° NE 22:04:39 20° SE
Milstar 3 4.1 21:51:48 10° WSW 22:02:54 36° S 22:07:42 20° SE
Cosmos 1048 Rocket 4.0 21:58:22 10° NNW 22:03:41 83° WSW 22:07:37 18° SSE
ATLAS CENTAUR R/B 2.7 22:05:12 21° E 22:05:12 21° E 22:07:24 10° ENE
Cosmos 1656 Rocket 3.7 22:03:35 10° S 22:08:50 51° ESE 22:14:10 10° NNE
Cosmos 1408 3.3 22:05:21 10° SSW 22:08:59 55° W 22:12:41 10° N
Cosmos 1437 4.4 22:06:39 10° NNE 22:09:03 19° ENE 22:09:07 19° ENE
SPOT 5 3.3 22:06:19 23° SE 22:09:35 56° ENE 22:14:45 10° N
ARGOS 3.1 22:10:08 22° SSE 22:13:39 72° ENE 22:19:00 10° N
Lacrosse 5 rocket 3.7 22:12:31 10° W 22:15:22 22° NNW 22:18:17 10° NNE
CENTAUR R/B 3.2 22:13:15 10° SW 22:19:11 57° NW 22:25:59 10° NNE
Meteor 1-27 Rocket 3.8 22:22:10 10° N 22:27:55 82° W 22:31:31 23° S
Cosmos 2251 Rocket 3.9 22:27:34 10° N 22:32:38 48° ENE 22:34:28 34° ESE
Cosmos 1825 4.0 22:29:42 10° SW 22:33:02 29° WNW 22:36:25 10° NNW
SL-08 RB Rocket 3.7 22:32:59 33° SSE 22:35:06 87° W 22:39:48 10° NNW
Cosmos 1378 Rocket 4.2 22:32:08 10° N 22:36:19 39° ENE 22:37:00 36° E
Cosmos 1674 Rocket 3.4 22:32:23 10° N 22:36:43 73° E 22:37:55 45° SSE
SPOT 1/Viking Rocket 3.5 22:39:33 36° SSE 22:41:45 83° ENE 22:46:59 10° NNW
DMSP B5D2-2 4.2 22:36:55 10° NNE 22:42:02 55° E 22:43:39 39° SSE
Okean 3 3.6 22:39:22 10° N 22:43:27 50° E 22:43:55 48° ESE
IGS 5A 4.2 22:43:48 35° E 22:44:10 36° ENE 22:47:58 10° N
H-2A R/B 3.2 22:50:34 27° ENE 22:50:40 27° ENE 22:54:09 10° N
Cosmos 2227 Rocket 3.7 22:48:49 10° N 22:53:22 24° NE 22:55:17 20° E
Cosmos 1943 Rocket 4.1 22:53:26 10° WSW 22:58:12 28° WNW 23:02:59 10° N
Nadezhda 4 Rocket 4.3 22:53:34 15° SSW 22:58:44 63° W 23:04:51 10° N
Cosmos 1092 Rocket 3.9 22:56:29 29° S 22:59:53 87° W 23:06:04 10° N
Cosmos 2219 3.2 22:56:41 10° NNW 23:02:28 76° ENE 23:04:04 49° SE
Landsat 7 3.8 23:05:14 56° S 23:06:13 83° WSW 23:11:00 10° NNW
GEOS 3 Rocket 4.1 23:05:52 39° E 23:07:19 51° NE 23:12:24 10° NNW
Cosmos 1812 3.2 23:04:29 10° N 23:07:47 50° NE 23:07:47 50° NE
Cosmos 494 Rocket 4.1 23:03:42 10° NNW 23:08:52 65° WSW 23:10:11 47° SSW
Cosmos 1627 Rocket 4.4 23:07:55 43° SSE 23:10:06 75° E 23:16:27 10° N
Cosmos 1908 Rocket 3.7 23:12:37 55° SW 23:13:27 70° W 23:17:55 10° N
Meteor 1-14 Rocket 4.2 23:13:13 45° S 23:15:08 85° E 23:20:58 10° N
Cosmos 1553 Rocket 4.4 23:09:33 10° N 23:15:38 45° ENE 23:16:48 41° ESE
Cosmos 1867 3.8 23:14:51 10° NW 23:20:11 57° WSW 23:21:08 49° SSW
ISS -0.6 23:19:48 10° NNW 23:21:17 12° N 23:22:46 10° NNE
Terra 1.7 23:20:55 72° S 23:21:23 83° WSW 23:26:11 10° NNW
H-2A R/B 3.1 23:20:37 30° SW 23:22:38 41° W 23:27:39 10° NNW
CZ-4B R/B 4.1 23:19:24 10° NNE 23:23:15 38° ENE 23:23:15 38° ENE
Okean 2 Rocket 3.4 23:29:03 55° NE 23:29:03 55° NE 23:32:47 10° NNE
Cosmos 405 Rocket 3.5 23:27:14 10° N 23:29:59 48° N 23:29:59 48° N
APEX 4.3 23:29:16 10° NNW 23:32:37 39° NNE 23:32:37 39° NNE
Gbstr 26 Del rocket 3.7 23:30:53 10° NW 23:35:01 42° NNE 23:35:01 42° NNE
Lacrosse 4 Rocket 4.0 23:33:32 10° W 23:35:09 12° WSW 23:36:05 11° WSW
SL-19 R/B 4.4 23:33:15 10° NNE 23:39:22 87° WNW 23:41:04 52° SSW
deb Chang Zheng 4 3.9 23:35:43 10° NNE 23:39:30 63° NNE 23:39:30 63° NNE
Cosmos 1782 Rocket 3.9 23:41:10 60° WNW 23:41:10 60° WNW 23:45:27 10° N
USA 215 3.7 23:40:49 42° SSW 23:41:57 46° SW 23:48:14 10° WNW
CZ-4C R/B 4.3 23:43:49 43° NE 23:43:49 43° NE 23:46:57 10° N
ATLAS CENTAUR R/B 2.9 23:41:20 22° W 23:43:08 31° NW 23:46:36 10° NNE
Cosmos 1697 Rocket 4.2 23:45:10 22° ENE 23:45:10 22° ENE 23:47:57 10° NE
ATLAS 5 CENTAUR R/B 4.4 23:40:12 10° WNW 23:44:11 18° WSW 23:46:13 15° SW
Cosmos 2266 Rocket 4.5 23:44:11 42° E 23:44:12 42° E 23:49:55 10° NNE
CZ-2C R/B 4.1 23:45:38 31° ENE 23:45:38 31° ENE 23:49:51 10° N
Okean 1 4.2 23:42:59 10° N 23:45:55 47° N 23:45:55 47° N
Meteor 1-18 Rocket 4.3 23:41:48 10° NNW 23:47:32 70° W 23:48:21 61° SW
Cosmos 2297 Rocket 2.6 23:42:22 10° NNW 23:47:53 50° ENE 23:48:21 49° ENE
Cosmos 1441 Rocket 4.5 23:50:27 10° NNW 23:53:01 40° NNW 23:53:01 40° NNW
ARGOS Delta rocket 4.0 23:51:01 10° N 23:54:44 61° N 23:54:44 61° N
